Location: Hermaringen
(48.5952°N, 10.2585°E)
Time: 14:49:46
(UTC+00:00)

S-56A Canister/Altair - Pass Details

Date: 22 February 2026
Orbit: 633 x 2484 km, 38.9° (Epoch: 8 March)

Event Time Altitude Azimuth Distance (km) Brightness Sun altitude
Exits shadow 02:41:28 20° 167° (SSE) 3,209 10.5 -35.1°
Drops below altitude 10° 02:45:37 10° 150° (SSE) 4,252 11.3 -34.5°
Sets 02:50:18 0° 140° (SE) 5,548 12.1 -33.8°
